Location: Unspecified
(0.0000°N, 0.0000°E)
Time: 01:53:19
(UTC+00:00)

Explorer 11/Cluster Stage 4 - Pass Details

Date: 25 April 2026
Orbit: 463 x 1174 km, 28.8° (Epoch: 15 May)

Event Time Altitude Azimuth Distance (km) Brightness Sun altitude
Exits shadow 04:18:48 22° 360° (N) 1,100 7.4 -24.1°
Drops below altitude 10° 04:20:59 10° 29° (NNE) 1,723 8.9 -23.6°
Sets 04:23:38 0° 43° (NE) 2,701 10.3 -22.9°
